Location: Berlín
(2.9793°N, 75.5102°W)
Time: 01:23:54
(UTC+00:00)

Daily predictions for brighter satellites

Satellite Brightness Start Highest point End
(mag) Time Altitude Azimuth Time Altitude Azimuth Time Altitude Azimuth
Cosmos 2151 Rocket 3.4 00:01:27 10° S 00:05:51 76° E 00:08:04 29° NNE
Delta 7925 Rocket 4.1 00:00:54 10° SW 00:06:56 75° SSE 00:10:14 36° ENE
Hubble Space Telescope 1.9 00:05:54 10° W 00:09:25 36° SSW 00:11:10 23° SSE
SEDSat Delta rocket 4.0 00:03:08 10° WNW 00:09:45 78° SSW 00:14:00 22° SE
SPOT 1/Viking Rocket 4.2 00:06:01 10° S 00:11:01 54° WSW 00:16:00 10° NNW
Cosmos 1943 Rocket 3.5 00:08:12 10° SW 00:13:23 38° WNW 00:18:34 10° N
Cosmos 44 Rocket 4.4 00:12:09 10° SW 00:16:26 39° WNW 00:19:30 18° N
Geosat 3.8 00:20:12 10° SSE 00:25:10 73° ENE 00:30:08 10° NNW
Cosmos 909 Rocket 4.3 00:19:18 10° NNW 00:26:00 90° ENE 00:34:18 10° SSE
Ariane H10-3 3.6 00:24:46 10° WNW 00:26:09 29° NW 00:26:09 29° NW
Palapa 6 Rocket 3.8 00:24:45 10° WNW 00:30:42 89° NNE 00:32:10 58° ESE
Cosmos 1932 4.3 00:27:20 10° SSW 00:33:28 73° ESE 00:33:54 69° ENE
Cosmos 676 Rocket 4.2 00:39:58 10° SSW 00:44:54 69° WSW 00:44:54 69° WSW
Okean 1 Rocket 4.1 00:42:13 10° SSW 00:45:42 43° WSW 00:45:42 43° WSW
SJ 16-02 2.6 00:43:06 10° SSW 00:46:30 38° WSW 00:46:30 38° WSW
ARIANE R/B 4.5 00:45:21 10° W 00:47:37 33° WNW 00:47:37 33° WNW
ATLAS 5 CENTAUR R/B 3.5 00:47:20 10° SSW 00:49:32 22° SSE 00:49:32 22° SSE
Atlas Centaur 2 3.3 00:46:48 10° W 00:51:58 41° SSW 00:53:44 34° S
VEP-3 4.4 00:53:51 10° NNW 00:55:46 18° NNW 00:55:46 18° NNW
Ariane H10+ 3.6 01:06:28 10° WSW 01:08:31 28° SW 01:08:31 28° SW
Sylda 5 4.4 01:30:05 10° W 01:48:59 54° WSW 01:48:59 54° WSW
ARIANE 5 R/B 4.2 01:52:50 10° WSW 02:28:30 19° ESE 02:59:12 10° E
CZ-3 Stage 3 3.4 08:16:52 84° NW 08:16:54 84° NNW 08:41:07 10° NE
ARIANE 5 R/B 3.7 08:24:34 25° ENE 08:24:34 25° ENE 08:25:57 10° E
Meteosat 1 Rocket2 4.4 08:27:19 54° E 08:27:19 54° E 08:31:16 10° ESE
ARIANE 5 DEB (SYLDA) 4.3 08:27:30 72° SE 08:27:30 72° SE 08:40:14 10° E
Centaur AC-119 4.1 08:31:37 40° E 08:31:37 40° E 08:34:22 10° ESE
Cosmos 2237 Rocket 3.9 08:27:09 10° SSE 08:32:03 30° ESE 08:36:55 10° NE
ARIANE 44L R/B 4.2 08:31:44 45° S 08:32:34 48° SSE 08:52:31 10° E
CZ-3 R/B 3.9 07:57:36 10° WSW 08:37:56 51° NW 08:48:18 10° NE
Cosmos 2227 4.4 08:41:26 67° E 08:41:26 67° E 08:46:45 10° SSE
Meteor 1-16 Rocket 4.2 08:48:34 78° S 08:48:34 78° S 08:53:50 10° S
BREEZE-M DEB (TANK) 4.4 08:46:15 26° SSW 08:49:10 63° ESE 09:07:01 10° NE
OAO 2 Rocket 4.0 08:50:44 48° SSE 08:50:44 48° SSE 08:54:37 10° SE
Cosmos 1844 4.0 08:51:30 48° NNE 08:52:49 63° ENE 08:58:17 10° SSE
Cosmos 1535 Rocket 4.4 08:57:26 31° N 09:00:37 86° E 09:06:51 10° S
FALCON 9 R/B 4.0 08:56:30 24° NNW 09:03:03 40° NNE 09:08:10 10° E
Meteor 2-14 Rocket 4.3 09:04:31 10° SSW 09:10:36 67° W 09:16:40 10° N
ARIANE 42L R/B 3.5 09:12:29 33° SSW 09:13:13 36° S 09:15:57 10° ESE
CZ-4C R/B 3.5 09:13:15 35° WNW 09:16:53 52° WSW 09:25:39 10° S
SL-16 R/B 2.4 09:13:16 10° S 09:19:26 81° WSW 09:25:08 13° NNW
Cosmos 1066 4.5 09:16:19 10° S 09:21:46 84° W 09:27:12 10° N
ARIANE 5 R/B 1.7 09:24:52 32° SE 09:24:52 32° SE 09:26:07 10° ESE
Centaur AC-112 3.2 09:29:22 35° NW 09:29:58 37° NNW 09:37:58 10° NE
CZ-2C R/B 4.4 09:34:10 13° SW 09:34:10 13° SW 09:34:52 10° SW
Cosmos 1733 Rocket 3.1 09:28:02 10° N 09:32:19 75° E 09:36:39 10° S
Cosmos 1844 Rocket 3.2 09:33:56 31° WNW 09:35:33 37° WSW 09:40:42 10° S
GPS 2-15 Rocket1 3.9 09:37:01 25° NW 09:39:11 41° NNE 09:43:40 10° E
UNK 3.8 09:37:14 10° SSE 09:41:44 74° ENE 09:46:13 10° N
ATLAS CENTAUR R/B 1.1 09:42:50 36° WSW 09:42:54 37° WSW 09:45:44 10° S
TRAILBLAZER 4.5 09:39:58 20° NNW 09:43:06 73° WSW 09:47:36 10° SSE
Cosmos 1328 4.0 09:43:01 10° SSW 09:46:22 37° W 09:49:43 10° NNW
Cosmos 1606 3.6 09:46:57 10° NNE 09:49:25 33° E 09:51:54 10° SSE
IRS-1D 3.4 09:49:14 10° N 09:54:02 57° WNW 09:58:53 10° SSW
BLOCK DM-SL R/B 4.2 09:39:23 15° W 09:54:54 78° S 09:59:35 10° E
Cosmos 1703 Rocket 3.9 09:52:03 10° SSW 09:56:05 40° W 10:00:07 10° NNW
Cosmos 2100 Rocket 4.1 09:53:14 10° N 09:59:22 80° E 10:05:38 10° S
BLOCK DM-SL R/B 4.2 09:58:54 13° WSW 10:02:42 70° S 10:26:33 10° E
Skynet4D Del rocket 3.8 10:08:42 10° WSW 10:15:02 69° NNW 10:20:38 10° NE
Cosmos 2237 Rocket 3.4 10:11:56 10° WSW 10:15:48 19° WNW 10:19:41 10° NNW
Ariane H10+ 3.3 10:13:20 10° WSW 10:15:50 65° SSE 10:23:43 10° E
Hubble Space Telescope 3.5 10:14:09 10° S 10:16:07 14° SSE 10:18:04 10° ESE
Cosmos 921 Rocket 3.0 10:12:20 10° NNW 10:16:45 86° WSW 10:21:06 10° S
USA 229 DEB 3.2 10:11:45 10° SSW 10:17:22 88° WNW 10:23:04 10° NNE
Ariane 42L R/B 4.3 10:10:13 10° W 10:17:31 34° SSW 10:21:14 10° SE
USA 229 3.2 10:11:57 10° SSW 10:17:34 89° WNW 10:23:15 10° NNE
Centaur AC-119 4.1 10:15:54 10° W 10:19:22 19° SW 10:21:59 10° S
Cosmos 2292 Rocket 3.9 10:16:46 10° SW 10:19:23 25° W 10:22:22 10° NNW
Cosmos 1459 Rocket 4.0 10:13:45 10° N 10:20:02 73° W 10:26:14 10° S
OAO 3 Rocket 4.4 10:16:03 10° W 10:20:05 28° SW 10:24:10 10° SSE
